Miscellaneous Local Product
Issued by NWS North Platte, NE

Home | Current Version | Previous Version | Graphics & Text | Print | Product List | Glossary On
Versions: 1 2 3 4 5 6 7 8 9 10 11 12 13 14 15 16 17 18 19 20 21 22 23 24 25 26 27 28 29 30 31 32 33 34 35 36 37 38 39 40 41 42 43 44 45 46 47 48 49 50
000
AXUS43 KLBF 301210
MISLBF


WESTERN AND NORTH CENTRAL NEBRASKA HOURLY WEATHER ROUNDUP
NATIONAL WEATHER SERVICE NORTH PLATTE NE
700 AM CDT THU JUL 30 2015

***STATIONS NOT REPORTING VARIABLES SUCH AS SKY/WEATHER OR
PRESSURE ARE PROVIDED BY THE NEBRASKA DEPARTMENT OF
ROADS...RAWS...AND APRS NETWORKS...AND ARE NOT UNDER
NATIONAL WEATHER SERVICE QUALITY CONTROL***

...OBSERVATIONS IN AND NEAR THE EASTERN PANHANDLE OF NEBRASKA...

CITY           SKY/WX    TMP DP  RH WIND       PRES   REMARKS
PINE RIDGE     CLEAR     53  47  79 W3        30.24R
CHADRON        CLEAR     50  47  89 W6        30.25R
ALLIANCE       PTCLDY    56  50  80 NE3       30.26R
SIDNEY         CLEAR     57  55  93 SW9       30.29R
BIG SPRINGS      N/A     60  55  84 S3          N/A
$$

...OBSERVATIONS IN NORTH CENTRAL NEBRASKA...

CITY           SKY/WX    TMP DP  RH WIND       PRES   REMARKS
VALENTINE      CLEAR     57  51  80 SW10      30.21S
THEDFORD       CLEAR     61  55  78 SW5       30.25R
AINSWORTH      CLEAR     57  54  89 SW6       30.23R
O`NEILL        CLEAR     58  54  86 SW5       30.21R
ORD            CLEAR     55  53  93 CALM      30.20S
BROKEN BOW     CLEAR     63  56  78 SW8       30.23R
SPRINGVIEW       N/A     54  51  89 CALM        N/A
CHAMBERS         N/A     62  53  72 CALM        N/A
EWING            N/A     58  55  90 CALM        N/A
$$

...OBSERVATIONS IN SOUTHWEST NEBRASKA AND FAR NORTHEAST COLORADO...

CITY           SKY/WX    TMP DP  RH WIND       PRES   REMARKS
WRAY           FAIR      58  58 100 S5        30.28R
HOLYOKE        FAIR      54  52  94 S3        30.28S
IMPERIAL       CLEAR     56  52  86 CALM      30.27S
OGALLALA       CLEAR     55  52  89 CALM      30.27R
NORTH PLATTE   LGT RAIN  56  52  86 CALM      30.26R
MCCOOK         CLEAR     56  52  86 CALM      30.25S
LEXINGTON      CLEAR     54  52  93 CALM      30.25R
PAXTON           N/A     57  53  85 CALM        N/A
BRADY            N/A     57  53  86 CALM        N/A
CALLAWAY         N/A     61  57  87 SW9         N/A
$$

...NORTH PLATTE AREA...

CITY           SKY/WX    TMP DP  RH WIND       PRES   REMARKS
AIRPORT        LGT RAIN  56  52  86 CALM      30.26R
DOWNTOWN         N/A     61  54  77 CALM        N/A
SANDRIDGE        N/A     61  53  75 CALM        N/A
HILLCREST        N/A     60  53  79 CALM        N/A
$$

...SOME WEATHER OBSERVATIONS FROM AROUND THE REGION...

CITY           SKY/WX    TMP DP  RH WIND       PRES   REMARKS
DENVER         PTCLDY    59  50  72 W8        30.32R
LARAMIE        CLEAR     41  31  67 SW7       30.46R
CHEYENNE       CLEAR     54  45  71 W12       30.36R
SCOTTSBLUFF    CLEAR     56  50  80 E5        30.25R
RAPID CITY     CLEAR     55  45  68 NW8       30.24S
PIERRE         CLEAR     54  49  83 CALM      30.13S
WINNER         FAIR      65  51  60 W6        30.17R
SIOUX FALLS    PTCLDY    59  56  89 CALM      30.13S
OMAHA          CLEAR     65  60  84 E3        30.18R
GRAND ISLAND   CLEAR     58  53  84 SW6       30.23R
KANSAS CITY    PTCLDY    67  63  87 N3        30.19R
WICHITA        TSTM      72  68  87 NW30G40   30.23R FOG
HAYS           CLEAR     66  55  68 NE6       30.23R
LIBERAL        CLOUDY    70  64  83 NW3       30.22S
GOODLAND       CLEAR     57  55  93 S6        30.28S
$$



USA.gov is the U.S. government's official web portal to all federal, state and local government web resources and services.